sat.trackr.live / text

‹ back to catalog

STARLINK-34631

NORAD 64855 · 2025-152P

PAYLOAD ACTIVE UNKNOWN

§ Identity

Operator
Country
US
Launch date
2025-07-19
Launch site
AFWTR
Launch vehicle
Mass (kg)
RCS (m²)

Purposes: comms

External: N2YO · Heavens-Above · Gunter

§ Orbital elements

Epoch: 2026-05-25T02:16:28.553952Z

Period
95.64 min
Inclination
97.4531°
Eccentricity
0.0002150
Mean motion
15.05661324 rev/d
Perigee alt
548.0 km
Apogee alt
551.0 km
Semi-major
6,927.6 km
B*
2.1781e-4
RAAN
0.4314°
Arg perigee
83.7024°
Mean anomaly
276.4448°
Rev number
4,691

§ Raw data

STARLINK-346311 64855U 25152P   26145.09477493  .00003086  00000+0  21781-3 0  99922 64855  97.4531   0.4314 0002150  83.7024 276.4448 15.05661324 46911

JSON: /api/v1/satellites/64855 · /tle

For live sub-satellite position, see the globe view (requires WebGL).

§ Visibility from observer

Set your observer location to see the next 7 days of passes ≥ 10°. The values pass through the URL so the page stays shareable.

No JS? Fill the form by hand. The geolocation button needs JavaScript.